User: anonymous   Login
Location: Newark
(49.1000°N, 0.4667°W)
Time: 00:40:17
(UTC+00:00)
Language:

KAITUO 1B - Orbit

View from above orbital plane
View from above orbital plane
View from above satellite
View from above satellite

Ground track
Ground track

The orbit data is extracted from the following two-line orbital elements,

1 40912U 15049P   20188.58047032  .00000702  00000-0  35387-4 0  9992
2 40912  97.4470 196.1272 0013071 273.2856 203.0226 15.20374730265620
Epoch (UTC): 06 July 2020 13:55:52
Eccentricity: 0.0013071
inclination: 97.4470°
perigee height: 496 km
apogee height: 514 km
right ascension of ascending node: 196.1272°
argument of perigee: 273.2856°
revolutions per day: 15.20374730
mean anomaly at epoch: 203.0226°
orbit number at epoch: 26562

The dashed part of the orbit path shows where the satellite is in the earth's shadow,  

DLR